Powrót do katalogu

USA 21

LostNawigacjaHEO
NORAD 17506·PAYLOAD·🇺🇸 United States

Wystrzelony Feb 12, 1987 z Vandenberg Space Force Base

Loading…

Następne Przeloty (najbliższe 24 godziny)

TLE

NieaktualneSource: Space-Track

Epoka: Feb 14, 2026, 03:28 UTC

1 17506U 87015A   26045.14445650 -.00000778  00000-0 -21159-2 0  9990
2 17506  62.9671 273.1681 7275603 278.0632  12.4511  2.01482512 42766

Śledź USA 21 w czasie rzeczywistym z AllMySat

Download on the App Store